Regional Weather Roundup
Issued by NWS Charleston, SC

Current Version | Previous Version | Text Only | Print | Product List | Glossary Off
Versions: 1 2 3 4 5 6 7 8 9 10 11 12 13 14 15 16 17 18 19 20 21 22 23 24 25 26 27 28 29 30 31 32 33 34 35 36 37 38 39 40 41 42 43 44 45 46 47 48 49 50

388
ASUS42 KCHS 221027
RWRCHS

REGIONAL WEATHER ROUNDUP
NATIONAL WEATHER SERVICE CHARLESTON SC
500 AM EST WED NOV 22 2017

NOTE: "FAIR" INDICATES FEW OR NO CLOUDS BELOW 12,000 FEET WITH NO
SIGNIFICANT WEATHER AND/OR OBSTRUCTIONS TO VISIBILITY.

NOT ALL STATIONS ARE QUALITY CONTROLLED. USE DATA WITH CAUTION...
ESPECIALLY DEWPOINT OBSERVATIONS.

SCZ027-030-031-034>040-042>050-221100-
...SOUTHEAST SOUTH CAROLINA...

CITY           SKY/WX    TMP DP  RH WIND       PRES   REMARKS
N CHARLESTON   CLOUDY    61  60  97 NW9G18    29.94S
WATERFRONT PRK NOT AVBL
JOHNS ISLAND   CLOUDY    61  61 100 NW8       29.94S
PINOPOLIS        N/A     57  57 100 NW8       29.85S
MONCKS CORNER    N/A     57  57 100 CALM      29.95R FOG
SUMMERVILLE    CLOUDY    59  59 100 NW3       29.96R
BEAUFORT MCAS  CLOUDY    61  61 100 NW7       29.96R FOG
BEAUFORT ARPT  CLOUDY    59  59 100 W6        29.96R FOG
HILTON HEAD IS NOT AVBL
WALTERBORO     FOG       57  57 100 CALM      29.97R VSB 1/2
ALLENDALE      FOG       54  54 100 CALM      29.96S VSB 1/2

...SOUTHERN MIDLANDS AND PEE DEE...

CITY           SKY/WX    TMP DP  RH WIND       PRES   REMARKS
GEORGETOWN     CLOUDY    59  59 100 NW5       29.93F
KINGSTREE      CLOUDY    55  54  94 CALM      29.95F
ORANGEBURG     FOG       55  54  96 NW5       29.95F VSB 1/4
BARNWELL       FOG       52  52 100 CALM      29.97R VSB 1/4
AIKEN          FOG       46  46 100 W3        30.00S VSB 1/4
MANNING        FAIR      54  50  87 MISG      29.94F FOG
COLUMBIA       FOG       55  55 100 N3        29.95F VSB 1/4
SUMTER         MOCLDY    55  54  94 NW3       29.93F
FLORENCE       CLOUDY    57  54  89 N9        29.95F
MYRTLE BEACH   CLOUDY    60  60 100 NW7       29.95R
N MYRTLE BEACH CLOUDY    60  60 100 VRB5      29.93R FOG

$$

GAZ063-065-086>088-099>101-113>116-118-119-134>141-150-221100-
...SOUTHEAST GEORGIA...

CITY           SKY/WX    TMP DP  RH WIND       PRES   REMARKS
SAVANNAH ARPT  CLOUDY    60  60 100 W9        29.97R FOG
HUNTER AAF     CLOUDY    61  59  95 W6        29.94R FOG
FORT STEWART   FOG       59  58  97 W3        29.95R VSB 1/2
STATESBORO     FOG       56  56 100 CALM      29.97S VSB 1/4
SYLVANIA       FOG       56  56 100 CALM      29.98S VSB 1/4
CLAXTON        FOG       59  58  98 CALM      29.98R VSB 1/2

...CSRA...CENTRAL AND FAR SOUTHEAST GEORGIA...

CITY           SKY/WX    TMP DP  RH WIND       PRES   REMARKS
THOMSON        CLOUDY    52  51  97 N3        30.04R
AUGUSTA-BUSH   FOG       53  53 100 NW7       29.97S VSB 1/4
AUGUSTA-DANIEL FOG       53  52  96 NW8       29.98S VSB 3/4
SWAINSBORO     FOG       52  52 100 CALM      29.99S VSB 1/4
VIDALIA        FOG       55  55 100 CALM      29.99R VSB 1/4
EASTMAN        HAZE      53  47  81 CALM      30.01S VSB 1/2
HAZLEHURST     FOG       58  55  92 CALM      29.97F VSB<1/4
ALMA           CLOUDY    60  58  92 SW3       29.98S FOG
WAYCROSS       FOG       56  53  91 CALM      29.98R VSB 1/4
JESUP          FAIR      61  57  88 CALM      29.98S
BAXLEY         CLOUDY    59  59 100 CALM      29.97F FOG
BRUNSWICK      CLEAR     55  54  94 NW3       29.97F FOG
SAINT SIMONS   PTCLDY    58  58 100 CALM      29.96S

$$

SCZ027-028-034-036>038-045-046-048>050-GAZ119-141-221100-
...LAKE AND SUPPLEMENTAL COASTAL OBSERVATIONS...

STATION/POSITION TIME  TEMP    WIND        PRES    WAVE   SWELL
                       AIR SEA DIR/SP/G            HT/PER HT/PER/DIR
                 (UTC) (F)     (DEG/KT/KT) (MB)    (FT/S) (FT/S/D)
WINYAH BAY       0930   60     270/  6     1013.0F
LAKE MURRAY      0950   52      CALM  /  4 1013.9F
ACE BASIN NERRS  0945   60     300/  1     1014.0S
FORT PULASKI     1000   60 61  310/ 10/ 12 1014.7
SAPELO ISLAND    1000   56     350/  2     1015.0

$$

ANZ835-935-AMZ111-154-330-350-352-354-370-450-454-472-221100-
...C-MAN AND BUOY OBSERVATIONS...

STATION/POSITION TIME  TEMP    WIND        PRES    WAVE   SWELL
                       AIR SEA DIR/SP/G            HT/PER HT/PER/DIR
                 (UTC) (F)     (DEG/KT/KT) (MB)    (FT/S) (FT/S/D)
BUOY 41004       1010   66 72  310/ 14/ 19 1013.1
BUOY 41008       0950   62 67  310/ 12/ 14 1014.2R   4/ 8   3/110/ 8
FOLLY BEACH CMAN 1000   61     300/  6/  9 1014.2S
CAPERS NEARSHORE 1008   59 62  320/ 10/ 14 1013.4F
FRIPP NEARSHORE  1008   59 61  290/ 10/ 17 1013.4R


STATION/POSITION TIME  TEMP    WIND        PRES    WAVE   SWELL
                       AIR SEA DIR/SP/G            HT/PER HT/PER/DIR
                 (UTC) (F)     (DEG/KT/KT) (MB)    (FT/S) (FT/S/D)
5E ST. MARYS GA  1000      67                N/A     3/ 8
FRYING PAN BUOY  1010   67 72  350/  6/ 10 1012.6
BUOY 41025       1010   64 74  320/ 17/ 23 1012.8
CAPE LOOKOUT NC  1000           40/ 14/ 16 1011.7F
BUOY 41002       0950   76 76  200/ 17/ 21 1011.4F   7/ 9   3/100/ 9
BUOY 41010       NOT AVBL
ST AUGUSTINE FL  1000   63 68  300/  2/  3 1013.7F


$$




USA.gov is the U.S. government's official web portal to all federal, state and local government web resources and services.